Location: Unspecified
(35.7250°N, 0.0000°E)
Time: 05:31:19
(UTC+00:00)

Explorer 7 - Pass Details

Date: 19 June 2019
Orbit: 485 x 680 km, 50.3° (Epoch: 16 August)

Event Time Altitude Azimuth Distance (km) Brightness Sun altitude
Rises 08:22:21 0° 206° (SSW) 2,700 10.1 41.5°
Reaches altitude 10° 08:24:39 10° 197° (SSW) 1,844 9.5 41.9°
Maximum altitude 08:28:29 34° 132° (SE) 969 9.2 42.7°
Drops below altitude 10° 08:32:33 10° 67° (ENE) 1,968 10.6 43.5°
Sets 08:35:05 0° 58° (ENE) 2,912 11.1 44.0°
